Regional Weather Roundup
Issued by NWS

Home | Current Version | Previous Version | Graphics & Text | Print | Product List | Glossary On
Versions: 1 2 3 4 5 6 7 8 9 10 11 12 13 14 15 16 17 18 19 20 21 22 23 24 25 26 27 28 29 30 31 32 33 34 35 36 37 38 39 40 41 42 43 44 45 46 47 48 49 50
000
ASUS43 KFSD 241102
RWRSD

WEATHER ROUNDUP FOR SOUTH DAKOTA
NATIONAL WEATHER SERVICE SIOUX FALLS SD
500 AM CST MON NOV 24 2014

NOTE: "FAIR" INDICATES FEW OR NO CLOUDS BELOW 12,000 FEET WITH NO
SIGNIFICANT WEATHER AND/OR OBSTRUCTIONS TO VISIBILITY.


SDZ001>005-009-010-012>017-241200-
NORTHWEST AND NORTH CENTRAL SOUTH DAKOTA

CITY           SKY/WX    TMP DP  RH WIND       PRES   REMARKS
BUFFALO          N/A     14  11  87 SW5       29.70R WCI   6
FAITH            N/A     17  13  84 NW15      29.75R WCI   2
MOBRIDGE       CLOUDY    19  13  77 NW22      29.71R WCI   2
$$

SDZ012>016-024>037-041>051-057-063-072>074-241200-
SOUTHWEST AND SOUTH CENTRAL SOUTH DAKOTA

CITY           SKY/WX    TMP DP  RH WIND       PRES   REMARKS
RAPID CTY ARPT CLEAR     24  18  77 NW8       29.74R WCI  15
PIERRE         PTCLDY    20  14  77 NW17      29.72S WCI   5
CUSTER         PTCLDY    27  12  53 NW10G24   29.69S WCI  17
ELLSWORTH AFB  CLEAR     28  19  69 N15       29.72S WCI  16
PHILIP         CLEAR    N/A N/A N/A NW9       29.77R
PINE RIDGE     CLEAR     21  17  84 CALM      29.76S
WINNER         FAIR      23  16  74 NW20G30   29.70R WCI   8
$$

SDZ004>011-016>023-039-040-241200-
NORTHEAST SOUTH DAKOTA

CITY           SKY/WX    TMP DP  RH WIND       PRES   REMARKS
ABERDEEN       CLOUDY    18  10  71 N21G29    29.66R WCI   1
WATERTOWN      LGT SNOW  15  10  80 NW18G29   29.54R WCI  -2
SISSETON         N/A     15  10  80 N22G33    29.58R WCI  -3
$$

SDZ017-020-022-023-036>040-048>070-241200-
SOUTHEAST SOUTH DAKOTA

CITY           SKY/WX    TMP DP  RH WIND       PRES   REMARKS
SIOUX FALLS    CLOUDY    20  12  71 NW24G31   29.55R WCI   3
HURON          CLOUDY    19  13  77 NW23      29.64R WCI   2
MITCHELL       CLOUDY    22  14  71 NW29G36   29.64R WCI   4
YANKTON        CLOUDY   N/A N/A N/A NW28      29.61S
$$

ABBREVIATIONS USED IN REMARKS
   TC - TEMPERATURE IN CELSIUS
  WCI - WIND CHILL INDEX
   HX - HEAT INDEX
  VSB - VISIBILITY




USA.gov is the U.S. government's official web portal to all federal, state and local government web resources and services.